Location: Herm
(49.4830°N, 2.4500°W)
Time: 10:03:16
(UTC+00:00)

Envisat - Pass Details

Date: 03 October 2022
Orbit: 763 x 765 km, 98.2° (Epoch: 01 December)

Event Time Altitude Azimuth Distance (km) Brightness Sun altitude
Rises 04:57:08 0° 20° (NNE) 3,246 6.8 -22.4°
Reaches altitude 10° 04:59:37 10° 28° (NNE) 2,315 6.1 -22.0°
Maximum altitude 05:04:21 38° 96° (E) 1,162 4.4 -21.3°
Drops below altitude 10° 05:09:03 10° 165° (SSE) 2,297 5.4 -20.6°
Sets 05:11:30 0° 173° (S) 3,218 6.1 -20.2°
